Tegucigalpa, Honduras

6:38 AM CST en Noviembre 16, 2018 (GMT -0600)
Toncontin International

Tiempo Historia de MHTG - Junio, 2018

Change the Weather History Date:

Miércoles, Junio 13, 2018

  Actual Average Record
Temperature  
Temperatura media 72 ° F -  
Temperatura máxima 82 ° F 80 ° F 89 ° F (1999)
Temperatura mínima 63 ° F 64 ° F 60 ° F (2012)
Cooling Degree Days 8    
Growing Degree Days 22 (Base 50)    
Moisture  
Punto de rocío 65 ° F    
Average Humidity 83    
Maximum Humidity 100    
Minimum Humidity 47    
Precipitación  
Precipitación 0.00 pul 0.16 pul - ()
Presión al nivel del mar  
Presión al nivel del mar 30.05 pul    
Viento  
Velocidad del viento 1 mph ()    
Velocidad máxima del viento 8 mph    
Max Gust Speed -    
Visibilidad 5.1 Millas    
Eventos Lluvia , Tormenta    
Averages and records for this station are not official NWS values.
T = Trace of Precipitation, MM = Missing Value Source: Averaged Metar Reports

Daily Weather History Graph

Daily Weather History Graph

Search for Another Location

Airport or City:

Astronomía

Jun. 13, 2018 Salida Puesta
Hora real 5:20 AM CST 6:17 PM CST
Crepúsculo civil 4:57 AM CST 6:41 PM CST
Crepúsculo náutico 4:29 AM CST 7:08 PM CST
Crepúsculo astronómico 4:00 AM CST 7:37 PM CST
Luna 5:09 AM CST (6/13) 6:21 PM CST (6/13)
Horas de luz 13h 44m
Horas de luz
12h 56m
Creciente menguante, 0% of the Moon is Illuminated
Jun 13
Creciente menguante
Jun 13
Nueva
Jun 20
Cuarto creciente
Jun 27
Luna llena
Jul 6
Cuarto menguante

Hourly Weather History & Observations

Hora (CST) Temp. Índice de calor Punto de rocío Humedad Presión Visibilidad Wind Dir Velocidad del viento Velocidad de ráfagas Precip Eventos Condiciones
12:00 AM 66 ° F - 65 ° F 96% 30.02 pul 4 mi Sin viento Sin viento - - Lluvia Lluvia débil
12:00 AM 66.2 ° F - 64.4 ° F 94% 30.09 pul 4.3 mi Sin viento Sin viento - N/A Lluvia Lluvia débil
1:00 AM 66.2 ° F - 64.4 ° F 94% 30.09 pul 5.0 mi Sin viento Sin viento - N/A   Muy nublado
2:00 AM 64.4 ° F - 64.4 ° F 100% 30.06 pul 6.2 mi Sin viento Sin viento - N/A   Muy nublado
3:00 AM 64 ° F - 64 ° F 100% 29.97 pul 5 mi Sin viento Sin viento - -   Neblina
3:00 AM 64.4 ° F - 64.4 ° F 100% 30.04 pul 6.2 mi Sin viento Sin viento - N/A   Muy nublado
4:00 AM 62.6 ° F - 62.6 ° F 100% 30.04 pul 3.7 mi Sin viento Sin viento - N/A   Muy nublado
5:00 AM 62.6 ° F - 62.6 ° F 100% 30.04 pul 3.7 mi Sin viento Sin viento - N/A   Muy nublado
6:00 AM 64 ° F - 64 ° F 99% 29.98 pul 2 mi Sin viento Sin viento - -   Neblina
6:00 AM 64.4 ° F - 64.4 ° F 100% 30.04 pul 1.9 mi Sin viento Sin viento - N/A   Muy nublado
7:00 AM 64.4 ° F - 64.4 ° F 100% 30.09 pul 1.9 mi Sin viento Sin viento - N/A   Nublado
8:00 AM 69.8 ° F - 66.2 ° F 88% 30.09 pul 3.7 mi Sin viento Sin viento - N/A   Muy nublado
9:00 AM 71 ° F - 65 ° F 76% 30.00 pul 5 mi Sin viento Sin viento - -   Bruma
9:00 AM 71.6 ° F - 64.4 ° F 78% 30.12 pul - Sin viento Sin viento - N/A   Muy nublado
10:00 AM 77.0 ° F - 66.2 ° F 69% 30.12 pul 6.2 mi Sin viento Sin viento - N/A   Nubes dispersas
11:00 AM 77.0 ° F - 62.6 ° F 61% 30.12 pul 6.2 mi Sin viento Sin viento - N/A   Muy nublado
12:00 PM 79 ° F - 62 ° F 47% 29.93 pul 7 mi NE 3.5 mph - -   Bruma
12:00 PM 78.8 ° F - 62.6 ° F 57% 30.09 pul 6.2 mi NE 8.1 mph - N/A   Nubes dispersas
1:00 PM 78.8 ° F - 64.4 ° F 61% 30.06 pul 6.2 mi Sin viento Sin viento - N/A   Muy nublado
2:00 PM 82.4 ° F 83.9 ° F 64.4 ° F 54% 30.04 pul 6.2 mi Sur 8.1 mph - N/A   Muy nublado
2:07 PM 82.4 ° F 84.6 ° F 66.2 ° F 58% 30.04 pul 6.2 mi SSE 3.5 mph - N/A Tormenta Tormenta
3:00 PM 80 ° F - 63 ° F 47% 29.84 pul 6 mi Sur 3.5 mph - - Tormenta Tormenta
3:00 PM 80.6 ° F 81.8 ° F 62.6 ° F 54% 30.01 pul 6.2 mi Sur 3.5 mph - N/A Tormenta Tormenta
4:00 PM 69.8 ° F - 64.4 ° F 83% 30.01 pul 5.0 mi SSE 6.9 mph - N/A Lluvia Lluvia débil
5:00 PM 69.8 ° F - 66.2 ° F 88% 30.04 pul 3.7 mi SSE 5.8 mph - N/A Lluvia Lluvia débil
7:00 PM 68.0 ° F - 68.0 ° F 100% 30.06 pul 6.2 mi SE 3.5 mph - N/A   Muy nublado
8:00 PM 68.0 ° F - 66.2 ° F 94% 30.09 pul 6.2 mi Sin viento Sin viento - N/A   Muy nublado
9:00 PM 67 ° F - 67 ° F 100% 30.03 pul 6 mi Sin viento Sin viento - -   Muy nublado
9:00 PM 68.0 ° F - 66.2 ° F 94% 30.12 pul 6.2 mi Sin viento Sin viento - N/A   Muy nublado
10:00 PM 66.2 ° F - 66.2 ° F 100% 30.12 pul 6.2 mi Sin viento Sin viento - N/A   Muy nublado
11:00 PM 66.2 ° F - 64.4 ° F 94% 30.12 pul 5.0 mi Sin viento Sin viento - N/A   Nubes dispersas